owner,sensor,date,latitude,longitude,vertical_datum,wind_speed,wind_to_direction,wind_speed_of_gust,qcFlag 
TCOON,ioos:station:TCOON:524:1,2014-12-01T00:00:00Z,29.8672,-93.9310,0.0,1.1,148.0,1.9,'11111222,11111222,11111222' 
TCOON,ioos:station:TCOON:524:1,2014-12-01T00:06:00Z,29.8672,-93.9310,0.0,1.0,140.0,1.9,'11111222,11111222,11111222' 
TCOON,ioos:station:TCOON:524:1,2014-12-01T00:12:00Z,29.8672,-93.9310,0.0,1.1,138.0,1.8,'11111222,11111222,11111222' 
TCOON,ioos:station:TCOON:524:1,2014-12-01T00:18:00Z,29.8672,-93.9310,0.0,1.3,139.0,1.9,'11111222,11111222,11111222' 
TCOON,ioos:station:TCOON:524:1,2014-12-01T00:24:00Z,29.8672,-93.9310,0.0,0.9,139.0,1.8,'11111222,11111222,11111222' 
TCOON,ioos:station:TCOON:524:1,2014-12-01T00:30:00Z,29.8672,-93.9310,0.0,0.8,146.0,2.2,'11111222,11111222,11111222' 
TCOON,ioos:station:TCOON:524:1,2014-12-01T00:36:00Z,29.8672,-93.9310,0.0,0.0,138.0,0.0,'11111222,11111222,11111222' 
TCOON,ioos:station:TCOON:524:1,2014-12-01T00:42:00Z,29.8672,-93.9310,0.0,0.0,143.0,1.3,'11111222,11111222,11111222' 
TCOON,ioos:station:TCOON:524:1,2014-12-01T00:48:00Z,29.8672,-93.9310,0.0,0.0,145.0,0.5,'11111222,11111222,11111222' 
TCOON,ioos:station:TCOON:524:1,2014-12-01T00:54:00Z,29.8672,-93.9310,0.0,0.0,144.0,0.0,'11111222,11111222,11111222' 
TCOON,ioos:station:TCOON:524:1,2014-12-01T01:00:00Z,29.8672,-93.9310,0.0,0.0,132.0,0.0,'11111222,11111222,11111222' 
TCOON,ioos:station:TCOON:524:1,2014-12-01T01:06:00Z,29.8672,-93.9310,0.0,0.0,128.0,0.0,'11111222,11111222,11111222' 
TCOON,ioos:station:TCOON:524:1,2014-12-01T01:12:00Z,29.8672,-93.9310,0.0,1.2,132.0,1.9,'11111222,11111222,11111222' 
TCOON,ioos:station:TCOON:524:1,2014-12-01T01:18:00Z,29.8672,-93.9310,0.0,1.0,143.0,2.4,'11111222,11111222,11111222' 
TCOON,ioos:station:TCOON:524:1,2014-12-01T01:24:00Z,29.8672,-93.9310,0.0,1.8,143.0,2.5,'11111222,11111222,11111222' 
TCOON,ioos:station:TCOON:524:1,2014-12-01T01:30:00Z,29.8672,-93.9310,0.0,1.7,141.0,2.6,'11111222,11111222,11111222' 
TCOON,ioos:station:TCOON:524:1,2014-12-01T01:36:00Z,29.8672,-93.9310,0.0,2.0,141.0,3.3,'11111222,11111222,11111222' 
TCOON,ioos:station:TCOON:524:1,2014-12-01T01:42:00Z,29.8672,-93.9310,0.0,2.1,148.0,3.1,'11111222,11111222,11111222' 
TCOON,ioos:station:TCOON:524:1,2014-12-01T01:48:00Z,29.8672,-93.9310,0.0,2.1,151.0,3.3,'11111222,11111222,11111222' 
TCOON,ioos:station:TCOON:524:1,2014-12-01T01:54:00Z,29.8672,-93.9310,0.0,2.0,146.0,3.1,'11111222,11111222,11111222' 
TCOON,ioos:station:TCOON:524:1,2014-12-01T02:00:00Z,29.8672,-93.9310,0.0,2.1,142.0,3.0,'11111222,11111222,11111222' 
TCOON,ioos:station:TCOON:524:1,2014-12-01T02:06:00Z,29.8672,-93.9310,0.0,2.1,142.0,2.9,'11111222,11111222,11111222' 
TCOON,ioos:station:TCOON:524:1,2014-12-01T02:12:00Z,29.8672,-93.9310,0.0,2.5,143.0,3.6,'11111222,11111222,11111222' 
TCOON,ioos:station:TCOON:524:1,2014-12-01T02:18:00Z,29.8672,-93.9310,0.0,2.5,143.0,3.6,'1111122,1111122,1111122' 
TCOON,ioos:station:TCOON:524:1,2014-12-01T02:24:00Z,29.8672,-93.9310,0.0,2.0,148.0,3.1,'11111222,11111222,11111222' 
TCOON,ioos:station:TCOON:524:1,2014-12-01T02:30:00Z,29.8672,-93.9310,0.0,1.5,146.0,2.8,'11111222,11111222,11111222' 
TCOON,ioos:station:TCOON:524:1,2014-12-01T02:36:00Z,29.8672,-93.9310,0.0,1.3,143.0,2.5,'11111222,11111222,11111222' 
TCOON,ioos:station:TCOON:524:1,2014-12-01T02:42:00Z,29.8672,-93.9310,0.0,2.1,147.0,2.6,'11111222,11111222,11111222' 
TCOON,ioos:station:TCOON:524:1,2014-12-01T02:48:00Z,29.8672,-93.9310,0.0,1.4,155.0,2.7,'11111222,11111222,11111222' 
TCOON,ioos:station:TCOON:524:1,2014-12-01T02:54:00Z,29.8672,-93.9310,0.0,1.9,148.0,3.0,'11111222,11111222,11111222' 
TCOON,ioos:station:TCOON:524:1,2014-12-01T03:00:00Z,29.8672,-93.9310,0.0,1.7,149.0,2.5,'11111222,11111222,11111222' 
TCOON,ioos:station:TCOON:524:1,2014-12-01T03:06:00Z,29.8672,-93.9310,0.0,1.4,144.0,2.5,'11111222,11111222,11111222' 
TCOON,ioos:station:TCOON:524:1,2014-12-01T03:12:00Z,29.8672,-93.9310,0.0,1.4,144.0,2.5,'1111122,1111122,1111122' 
TCOON,ioos:station:TCOON:524:1,2014-12-01T03:18:00Z,29.8672,-93.9310,0.0,1.1,131.0,1.8,'11111222,11111222,11111222' 
TCOON,ioos:station:TCOON:524:1,2014-12-01T03:24:00Z,29.8672,-93.9310,0.0,1.6,144.0,2.7,'11111222,11111222,11111222' 
TCOON,ioos:station:TCOON:524:1,2014-12-01T03:30:00Z,29.8672,-93.9310,0.0,1.8,149.0,2.8,'11111222,11111222,11111222' 
TCOON,ioos:station:TCOON:524:1,2014-12-01T03:36:00Z,29.8672,-93.9310,0.0,1.6,144.0,2.8,'11111222,11111222,11111222' 
TCOON,ioos:station:TCOON:524:1,2014-12-01T03:42:00Z,29.8672,-93.9310,0.0,1.7,146.0,2.7,'11111222,11111222,11111222' 
TCOON,ioos:station:TCOON:524:1,2014-12-01T03:48:00Z,29.8672,-93.9310,0.0,1.3,158.0,2.3,'11111222,11111222,11111222' 
TCOON,ioos:station:TCOON:524:1,2014-12-01T03:54:00Z,29.8672,-93.9310,0.0,0.9,161.0,1.9,'11111222,11111222,11111222' 
TCOON,ioos:station:TCOON:524:1,2014-12-01T04:00:00Z,29.8672,-93.9310,0.0,0.8,158.0,1.5,'11111222,11111222,11111222' 
TCOON,ioos:station:TCOON:524:1,2014-12-01T04:06:00Z,29.8672,-93.9310,0.0,0.8,163.0,1.5,'11111222,11111222,11111222' 
TCOON,ioos:station:TCOON:524:1,2014-12-01T04:12:00Z,29.8672,-93.9310,0.0,0.9,175.0,1.9,'11111222,11111222,11111222' 
TCOON,ioos:station:TCOON:524:1,2014-12-01T04:18:00Z,29.8672,-93.9310,0.0,0.9,175.0,1.9,'1111122,1111122,1111122' 
TCOON,ioos:station:TCOON:524:1,2014-12-01T04:24:00Z,29.8672,-93.9310,0.0,1.7,151.0,2.7,'11111222,11111222,11111222' 
TCOON,ioos:station:TCOON:524:1,2014-12-01T04:30:00Z,29.8672,-93.9310,0.0,1.6,151.0,2.7,'11111222,11111222,11111222' 
TCOON,ioos:station:TCOON:524:1,2014-12-01T04:36:00Z,29.8672,-93.9310,0.0,1.6,138.0,2.3,'11111222,11111222,11111222' 
TCOON,ioos:station:TCOON:524:1,2014-12-01T04:42:00Z,29.8672,-93.9310,0.0,1.1,136.0,2.0,'11111222,11111222,11111222' 
TCOON,ioos:station:TCOON:524:1,2014-12-01T04:48:00Z,29.8672,-93.9310,0.0,1.4,126.0,1.9,'11111222,11111222,11111222' 
TCOON,ioos:station:TCOON:524:1,2014-12-01T04:54:00Z,29.8672,-93.9310,0.0,1.3,122.0,2.1,'11111222,11111222,11111222' 
TCOON,ioos:station:TCOON:524:1,2014-12-01T05:00:00Z,29.8672,-93.9310,0.0,1.3,122.0,2.2,'11111222,11111222,11111222' 
TCOON,ioos:station:TCOON:524:1,2014-12-01T05:06:00Z,29.8672,-93.9310,0.0,0.9,132.0,2.1,'11111222,11111222,11111222' 
TCOON,ioos:station:TCOON:524:1,2014-12-01T05:12:00Z,29.8672,-93.9310,0.0,0.9,132.0,2.1,'1111122,1111122,1111122' 
TCOON,ioos:station:TCOON:524:1,2014-12-01T05:18:00Z,29.8672,-93.9310,0.0,0.9,140.0,2.3,'11111222,11111222,11111222' 
TCOON,ioos:station:TCOON:524:1,2014-12-01T05:24:00Z,29.8672,-93.9310,0.0,1.1,155.0,2.3,'11111222,11111222,11111222' 
TCOON,ioos:station:TCOON:524:1,2014-12-01T05:30:00Z,29.8672,-93.9310,0.0,0.7,160.0,1.8,'11111222,11111222,11111222' 
TCOON,ioos:station:TCOON:524:1,2014-12-01T05:36:00Z,29.8672,-93.9310,0.0,0.9,149.0,1.2,'11111222,11111222,11111222' 
TCOON,ioos:station:TCOON:524:1,2014-12-01T05:42:00Z,29.8672,-93.9310,0.0,0.6,149.0,1.2,'11111222,11111222,11111222' 
TCOON,ioos:station:TCOON:524:1,2014-12-01T05:48:00Z,29.8672,-93.9310,0.0,0.8,150.0,1.4,'11111222,11111222,11111222' 
TCOON,ioos:station:TCOON:524:1,2014-12-01T05:54:00Z,29.8672,-93.9310,0.0,0.5,154.0,1.3,'11111222,11111222,11111222' 
TCOON,ioos:station:TCOON:524:1,2014-12-01T06:00:00Z,29.8672,-93.9310,0.0,0.9,150.0,2.0,'11111222,11111222,11111222' 
TCOON,ioos:station:TCOON:524:1,2014-12-01T06:06:00Z,29.8672,-93.9310,0.0,0.5,159.0,1.2,'11111222,11111222,11111222' 
TCOON,ioos:station:TCOON:524:1,2014-12-01T06:12:00Z,29.8672,-93.9310,0.0,0.5,148.0,1.3,'11111222,11111222,11111222' 
TCOON,ioos:station:TCOON:524:1,2014-12-01T06:18:00Z,29.8672,-93.9310,0.0,0.5,148.0,1.3,'1111122,1111122,1111122' 
TCOON,ioos:station:TCOON:524:1,2014-12-01T06:24:00Z,29.8672,-93.9310,0.0,1.2,154.0,2.1,'11111222,11111222,11111222' 
TCOON,ioos:station:TCOON:524:1,2014-12-01T06:30:00Z,29.8672,-93.9310,0.0,1.5,142.0,2.2,'11111222,11111222,11111222' 
TCOON,ioos:station:TCOON:524:1,2014-12-01T06:36:00Z,29.8672,-93.9310,0.0,1.3,151.0,2.1,'11111222,11111222,11111222' 
TCOON,ioos:station:TCOON:524:1,2014-12-01T06:42:00Z,29.8672,-93.9310,0.0,0.9,149.0,1.7,'11111222,11111222,11111222' 
TCOON,ioos:station:TCOON:524:1,2014-12-01T06:48:00Z,29.8672,-93.9310,0.0,1.0,146.0,1.8,'11111222,11111222,11111222' 
TCOON,ioos:station:TCOON:524:1,2014-12-01T06:54:00Z,29.8672,-93.9310,0.0,0.5,157.0,1.3,'11111222,11111222,11111222' 
TCOON,ioos:station:TCOON:524:1,2014-12-01T07:00:00Z,29.8672,-93.9310,0.0,1.1,139.0,1.5,'11111222,11111222,11111222' 
TCOON,ioos:station:TCOON:524:1,2014-12-01T07:06:00Z,29.8672,-93.9310,0.0,1.3,128.0,1.7,'11111222,11111222,11111222' 
TCOON,ioos:station:TCOON:524:1,2014-12-01T07:12:00Z,29.8672,-93.9310,0.0,1.2,124.0,1.7,'11111222,11111222,11111222' 
TCOON,ioos:station:TCOON:524:1,2014-12-01T07:18:00Z,29.8672,-93.9310,0.0,1.2,124.0,1.7,'1111122,1111122,1111122' 
TCOON,ioos:station:TCOON:524:1,2014-12-01T07:24:00Z,29.8672,-93.9310,0.0,1.7,128.0,2.7,'11111222,11111222,11111222' 
TCOON,ioos:station:TCOON:524:1,2014-12-01T07:30:00Z,29.8672,-93.9310,0.0,1.5,122.0,2.4,'11111222,11111222,11111222' 
TCOON,ioos:station:TCOON:524:1,2014-12-01T07:36:00Z,29.8672,-93.9310,0.0,1.8,130.0,2.5,'11111222,11111222,11111222' 
TCOON,ioos:station:TCOON:524:1,2014-12-01T07:42:00Z,29.8672,-93.9310,0.0,1.9,135.0,2.6,'11111222,11111222,11111222' 
TCOON,ioos:station:TCOON:524:1,2014-12-01T07:48:00Z,29.8672,-93.9310,0.0,1.3,147.0,2.4,'11111222,11111222,11111222' 
TCOON,ioos:station:TCOON:524:1,2014-12-01T07:54:00Z,29.8672,-93.9310,0.0,0.9,151.0,1.6,'11111222,11111222,11111222' 
TCOON,ioos:station:TCOON:524:1,2014-12-01T08:00:00Z,29.8672,-93.9310,0.0,1.2,148.0,1.9,'11111222,11111222,11111222' 
TCOON,ioos:station:TCOON:524:1,2014-12-01T08:06:00Z,29.8672,-93.9310,0.0,1.0,145.0,1.5,'11111222,11111222,11111222' 
TCOON,ioos:station:TCOON:524:1,2014-12-01T08:12:00Z,29.8672,-93.9310,0.0,1.0,145.0,1.5,'1111122,1111122,1111122' 
TCOON,ioos:station:TCOON:524:1,2014-12-01T08:18:00Z,29.8672,-93.9310,0.0,0.8,151.0,1.3,'11111222,11111222,11111222' 
TCOON,ioos:station:TCOON:524:1,2014-12-01T08:24:00Z,29.8672,-93.9310,0.0,1.0,124.0,1.2,'11111222,11111222,11111222' 
TCOON,ioos:station:TCOON:524:1,2014-12-01T08:30:00Z,29.8672,-93.9310,0.0,0.9,122.0,1.4,'11111222,11111222,11111222' 
TCOON,ioos:station:TCOON:524:1,2014-12-01T08:36:00Z,29.8672,-93.9310,0.0,1.0,123.0,1.4,'11111222,11111222,11111222' 
TCOON,ioos:station:TCOON:524:1,2014-12-01T08:42:00Z,29.8672,-93.9310,0.0,1.1,121.0,1.7,'11111222,11111222,11111222' 
TCOON,ioos:station:TCOON:524:1,2014-12-01T08:48:00Z,29.8672,-93.9310,0.0,1.0,113.0,1.5,'11111222,11111222,11111222' 
TCOON,ioos:station:TCOON:524:1,2014-12-01T08:54:00Z,29.8672,-93.9310,0.0,1.4,115.0,1.8,'11111222,11111222,11111222' 
TCOON,ioos:station:TCOON:524:1,2014-12-01T09:00:00Z,29.8672,-93.9310,0.0,1.1,113.0,1.8,'11111222,11111222,11111222' 
TCOON,ioos:station:TCOON:524:1,2014-12-01T09:06:00Z,29.8672,-93.9310,0.0,1.2,113.0,1.7,'11111222,11111222,11111222' 
TCOON,ioos:station:TCOON:524:1,2014-12-01T09:12:00Z,29.8672,-93.9310,0.0,1.0,114.0,1.5,'11111222,11111222,11111222' 
TCOON,ioos:station:TCOON:524:1,2014-12-01T09:18:00Z,29.8672,-93.9310,0.0,1.0,114.0,1.5,'1111122,1111122,1111122' 
TCOON,ioos:station:TCOON:524:1,2014-12-01T09:24:00Z,29.8672,-93.9310,0.0,0.7,113.0,1.1,'11111222,11111222,11111222' 
TCOON,ioos:station:TCOON:524:1,2014-12-01T09:30:00Z,29.8672,-93.9310,0.0,0.1,123.0,0.7,'11111222,11111222,11111222' 
TCOON,ioos:station:TCOON:524:1,2014-12-01T09:36:00Z,29.8672,-93.9310,0.0,0.2,126.0,0.4,'11111222,11111222,11111222' 
TCOON,ioos:station:TCOON:524:1,2014-12-01T09:42:00Z,29.8672,-93.9310,0.0,0.4,121.0,1.0,'11111222,11111222,11111222' 
TCOON,ioos:station:TCOON:524:1,2014-12-01T09:48:00Z,29.8672,-93.9310,0.0,0.0,122.0,0.4,'11111222,11111222,11111222' 
TCOON,ioos:station:TCOON:524:1,2014-12-01T09:54:00Z,29.8672,-93.9310,0.0,0.6,121.0,1.3,'11111222,11111222,11111222' 
TCOON,ioos:station:TCOON:524:1,2014-12-01T10:00:00Z,29.8672,-93.9310,0.0,0.6,124.0,1.0,'11111222,11111222,11111222' 
TCOON,ioos:station:TCOON:524:1,2014-12-01T10:06:00Z,29.8672,-93.9310,0.0,0.7,117.0,1.0,'11111222,11111222,11111222' 
TCOON,ioos:station:TCOON:524:1,2014-12-01T10:12:00Z,29.8672,-93.9310,0.0,0.7,117.0,1.0,'1111122,1111122,1111122' 
TCOON,ioos:station:TCOON:524:1,2014-12-01T10:18:00Z,29.8672,-93.9310,0.0,0.7,108.0,0.9,'11111222,11111222,11111222' 
TCOON,ioos:station:TCOON:524:1,2014-12-01T10:24:00Z,29.8672,-93.9310,0.0,0.9,101.0,1.2,'11111222,11111222,11111222' 
TCOON,ioos:station:TCOON:524:1,2014-12-01T10:30:00Z,29.8672,-93.9310,0.0,1.0,100.0,1.5,'11111222,11111222,11111222' 
TCOON,ioos:station:TCOON:524:1,2014-12-01T10:36:00Z,29.8672,-93.9310,0.0,1.1,97.0,1.6,'11111222,11111222,11111222' 
TCOON,ioos:station:TCOON:524:1,2014-12-01T10:42:00Z,29.8672,-93.9310,0.0,0.9,102.0,1.6,'11111222,11111222,11111222' 
TCOON,ioos:station:TCOON:524:1,2014-12-01T10:48:00Z,29.8672,-93.9310,0.0,0.6,90.0,0.8,'11111222,11111222,11111222' 
TCOON,ioos:station:TCOON:524:1,2014-12-01T10:54:00Z,29.8672,-93.9310,0.0,0.7,92.0,1.0,'11111222,11111222,11111222' 
TCOON,ioos:station:TCOON:524:1,2014-12-01T11:00:00Z,29.8672,-93.9310,0.0,1.1,105.0,1.5,'11111222,11111222,11111222' 
TCOON,ioos:station:TCOON:524:1,2014-12-01T11:06:00Z,29.8672,-93.9310,0.0,1.3,106.0,1.8,'11111222,11111222,11111222' 
TCOON,ioos:station:TCOON:524:1,2014-12-01T11:12:00Z,29.8672,-93.9310,0.0,1.3,106.0,1.8,'1111122,1111122,1111122' 
TCOON,ioos:station:TCOON:524:1,2014-12-01T11:18:00Z,29.8672,-93.9310,0.0,1.0,97.0,1.7,'11111222,11111222,11111222' 
TCOON,ioos:station:TCOON:524:1,2014-12-01T11:24:00Z,29.8672,-93.9310,0.0,1.5,88.0,1.9,'11111222,11111222,11111222' 
TCOON,ioos:station:TCOON:524:1,2014-12-01T11:30:00Z,29.8672,-93.9310,0.0,1.5,92.0,2.0,'11111222,11111222,11111222' 
TCOON,ioos:station:TCOON:524:1,2014-12-01T11:36:00Z,29.8672,-93.9310,0.0,1.2,91.0,2.1,'11111222,11111222,11111222' 
TCOON,ioos:station:TCOON:524:1,2014-12-01T11:42:00Z,29.8672,-93.9310,0.0,1.6,94.0,3.3,'11111222,11111222,11111222' 
TCOON,ioos:station:TCOON:524:1,2014-12-01T11:48:00Z,29.8672,-93.9310,0.0,1.6,90.0,2.2,'11111222,11111222,11111222' 
TCOON,ioos:station:TCOON:524:1,2014-12-01T11:54:00Z,29.8672,-93.9310,0.0,1.5,90.0,2.3,'11111222,11111222,11111222' 
TCOON,ioos:station:TCOON:524:1,2014-12-01T12:00:00Z,29.8672,-93.9310,0.0,1.3,92.0,2.0,'11111222,11111222,11111222' 
TCOON,ioos:station:TCOON:524:1,2014-12-01T12:06:00Z,29.8672,-93.9310,0.0,1.5,79.0,2.3,'11111222,11111222,11111222' 
TCOON,ioos:station:TCOON:524:1,2014-12-01T12:12:00Z,29.8672,-93.9310,0.0,1.5,79.0,2.3,'1111122,1111122,1111122' 
TCOON,ioos:station:TCOON:524:1,2014-12-01T12:18:00Z,29.8672,-93.9310,0.0,1.3,79.0,1.8,'11111222,11111222,11111222' 
TCOON,ioos:station:TCOON:524:1,2014-12-01T12:24:00Z,29.8672,-93.9310,0.0,1.1,76.0,1.6,'11111222,11111222,11111222' 
TCOON,ioos:station:TCOON:524:1,2014-12-01T12:30:00Z,29.8672,-93.9310,0.0,1.3,71.0,1.8,'11111222,11111222,11111222' 
TCOON,ioos:station:TCOON:524:1,2014-12-01T12:36:00Z,29.8672,-93.9310,0.0,0.6,64.0,1.6,'11111222,11111222,11111222' 
TCOON,ioos:station:TCOON:524:1,2014-12-01T12:42:00Z,29.8672,-93.9310,0.0,0.8,70.0,1.2,'11111222,11111222,11111222' 
TCOON,ioos:station:TCOON:524:1,2014-12-01T12:48:00Z,29.8672,-93.9310,0.0,1.2,85.0,1.7,'11111222,11111222,11111222' 
TCOON,ioos:station:TCOON:524:1,2014-12-01T12:54:00Z,29.8672,-93.9310,0.0,1.5,90.0,2.0,'11111222,11111222,11111222' 
TCOON,ioos:station:TCOON:524:1,2014-12-01T13:00:00Z,29.8672,-93.9310,0.0,1.5,86.0,2.2,'11111222,11111222,11111222' 
TCOON,ioos:station:TCOON:524:1,2014-12-01T13:06:00Z,29.8672,-93.9310,0.0,1.5,78.0,2.5,'11111222,11111222,11111222' 
TCOON,ioos:station:TCOON:524:1,2014-12-01T13:12:00Z,29.8672,-93.9310,0.0,1.5,78.0,2.5,'1111122,1111122,1111122' 
TCOON,ioos:station:TCOON:524:1,2014-12-01T13:18:00Z,29.8672,-93.9310,0.0,2.8,266.0,3.1,'11111222,11111222,11111222' 
TCOON,ioos:station:TCOON:524:1,2014-12-01T13:24:00Z,29.8672,-93.9310,0.0,1.5,239.0,2.5,'11111222,11111222,11111222' 
TCOON,ioos:station:TCOON:524:1,2014-12-01T13:30:00Z,29.8672,-93.9310,0.0,0.4,61.0,2.3,'11111222,11111222,11111222' 
TCOON,ioos:station:TCOON:524:1,2014-12-01T13:36:00Z,29.8672,-93.9310,0.0,1.0,271.0,1.6,'11111222,11111222,11111222' 
TCOON,ioos:station:TCOON:524:1,2014-12-01T13:42:00Z,29.8672,-93.9310,0.0,0.0,241.0,0.6,'11111222,11111222,11111222' 
TCOON,ioos:station:TCOON:524:1,2014-12-01T13:48:00Z,29.8672,-93.9310,0.0,0.0,241.0,0.0,'11111222,11111222,11111222' 
TCOON,ioos:station:TCOON:524:1,2014-12-01T13:54:00Z,29.8672,-93.9310,0.0,0.0,172.0,0.0,'11111222,11111222,11111222' 
TCOON,ioos:station:TCOON:524:1,2014-12-01T14:00:00Z,29.8672,-93.9310,0.0,0.0,131.0,0.0,'11111222,11111222,11111222' 
TCOON,ioos:station:TCOON:524:1,2014-12-01T14:06:00Z,29.8672,-93.9310,0.0,0.9,344.0,1.1,'11111222,11111222,11111222' 
TCOON,ioos:station:TCOON:524:1,2014-12-01T14:12:00Z,29.8672,-93.9310,0.0,0.5,63.0,1.0,'11111222,11111222,11111222' 
TCOON,ioos:station:TCOON:524:1,2014-12-01T14:18:00Z,29.8672,-93.9310,0.0,0.5,64.0,1.1,'11111222,11111222,11111222' 
TCOON,ioos:station:TCOON:524:1,2014-12-01T14:24:00Z,29.8672,-93.9310,0.0,0.8,83.0,0.9,'11111222,11111222,11111222' 
TCOON,ioos:station:TCOON:524:1,2014-12-01T14:30:00Z,29.8672,-93.9310,0.0,0.0,343.0,0.8,'11111222,11111222,11111222' 
TCOON,ioos:station:TCOON:524:1,2014-12-01T14:36:00Z,29.8672,-93.9310,0.0,0.1,48.0,0.3,'11111222,11111222,11111222' 
TCOON,ioos:station:TCOON:524:1,2014-12-01T14:42:00Z,29.8672,-93.9310,0.0,0.5,31.0,1.1,'11111222,11111222,11111222' 
TCOON,ioos:station:TCOON:524:1,2014-12-01T14:48:00Z,29.8672,-93.9310,0.0,0.9,99.0,2.0,'11111222,11111222,11111222' 
TCOON,ioos:station:TCOON:524:1,2014-12-01T14:54:00Z,29.8672,-93.9310,0.0,1.0,113.0,1.5,'11111222,11111222,11111222' 
TCOON,ioos:station:TCOON:524:1,2014-12-01T15:00:00Z,29.8672,-93.9310,0.0,0.4,114.0,0.9,'11111222,11111222,11111222' 
TCOON,ioos:station:TCOON:524:1,2014-12-01T15:06:00Z,29.8672,-93.9310,0.0,1.0,109.0,1.2,'11111222,11111222,11111222' 
TCOON,ioos:station:TCOON:524:1,2014-12-01T15:12:00Z,29.8672,-93.9310,0.0,1.0,120.0,1.5,'11111222,11111222,11111222' 
TCOON,ioos:station:TCOON:524:1,2014-12-01T15:18:00Z,29.8672,-93.9310,0.0,0.8,110.0,1.5,'11111222,11111222,11111222' 
TCOON,ioos:station:TCOON:524:1,2014-12-01T15:24:00Z,29.8672,-93.9310,0.0,0.7,106.0,1.1,'11111222,11111222,11111222' 
TCOON,ioos:station:TCOON:524:1,2014-12-01T15:30:00Z,29.8672,-93.9310,0.0,0.8,100.0,1.5,'11111222,11111222,11111222' 
TCOON,ioos:station:TCOON:524:1,2014-12-01T15:36:00Z,29.8672,-93.9310,0.0,0.9,110.0,1.4,'11111222,11111222,11111222' 
TCOON,ioos:station:TCOON:524:1,2014-12-01T15:42:00Z,29.8672,-93.9310,0.0,1.5,109.0,1.8,'11111222,11111222,11111222' 
TCOON,ioos:station:TCOON:524:1,2014-12-01T15:48:00Z,29.8672,-93.9310,0.0,0.2,161.0,1.9,'11111222,11111222,11111222' 
TCOON,ioos:station:TCOON:524:1,2014-12-01T15:54:00Z,29.8672,-93.9310,0.0,0.6,76.0,1.9,'11111222,11111222,11111222' 
TCOON,ioos:station:TCOON:524:1,2014-12-01T16:00:00Z,29.8672,-93.9310,0.0,0.6,312.0,1.0,'11111222,11111222,11111222' 
TCOON,ioos:station:TCOON:524:1,2014-12-01T16:06:00Z,29.8672,-93.9310,0.0,0.6,345.0,1.3,'11111222,11111222,11111222' 
TCOON,ioos:station:TCOON:524:1,2014-12-01T16:12:00Z,29.8672,-93.9310,0.0,1.9,96.0,2.2,'11111222,11111222,11111222' 
TCOON,ioos:station:TCOON:524:1,2014-12-01T16:18:00Z,29.8672,-93.9310,0.0,1.2,112.0,2.3,'11111222,11111222,11111222' 
TCOON,ioos:station:TCOON:524:1,2014-12-01T16:24:00Z,29.8672,-93.9310,0.0,0.8,131.0,1.1,'11111222,11111222,11111222' 
TCOON,ioos:station:TCOON:524:1,2014-12-01T16:30:00Z,29.8672,-93.9310,0.0,0.4,194.0,1.4,'11111222,11111222,11111222' 
TCOON,ioos:station:TCOON:524:1,2014-12-01T16:36:00Z,29.8672,-93.9310,0.0,1.4,124.0,2.4,'11111222,11111222,11111222' 
TCOON,ioos:station:TCOON:524:1,2014-12-01T16:42:00Z,29.8672,-93.9310,0.0,2.0,93.0,2.8,'11111222,11111222,11111222' 
TCOON,ioos:station:TCOON:524:1,2014-12-01T16:48:00Z,29.8672,-93.9310,0.0,1.5,99.0,2.4,'11111222,11111222,11111222' 
TCOON,ioos:station:TCOON:524:1,2014-12-01T16:54:00Z,29.8672,-93.9310,0.0,1.0,73.0,1.5,'11111222,11111222,11111222' 
TCOON,ioos:station:TCOON:524:1,2014-12-01T17:00:00Z,29.8672,-93.9310,0.0,1.2,82.0,1.5,'11111222,11111222,11111222' 
TCOON,ioos:station:TCOON:524:1,2014-12-01T17:06:00Z,29.8672,-93.9310,0.0,1.1,97.0,2.2,'11111222,11111222,11111222' 
TCOON,ioos:station:TCOON:524:1,2014-12-01T17:12:00Z,29.8672,-93.9310,0.0,1.7,103.0,2.5,'11111222,11111222,11111222' 
TCOON,ioos:station:TCOON:524:1,2014-12-01T17:18:00Z,29.8672,-93.9310,0.0,1.6,95.0,2.4,'11111222,11111222,11111222' 
TCOON,ioos:station:TCOON:524:1,2014-12-01T17:24:00Z,29.8672,-93.9310,0.0,1.2,94.0,1.9,'11111222,11111222,11111222' 
TCOON,ioos:station:TCOON:524:1,2014-12-01T17:30:00Z,29.8672,-93.9310,0.0,1.7,91.0,2.8,'11111222,11111222,11111222' 
TCOON,ioos:station:TCOON:524:1,2014-12-01T17:36:00Z,29.8672,-93.9310,0.0,1.9,103.0,2.7,'11111222,11111222,11111222' 
TCOON,ioos:station:TCOON:524:1,2014-12-01T17:42:00Z,29.8672,-93.9310,0.0,1.0,112.0,2.1,'11111222,11111222,11111222' 
TCOON,ioos:station:TCOON:524:1,2014-12-01T17:48:00Z,29.8672,-93.9310,0.0,1.0,104.0,1.7,'11111222,11111222,11111222' 
TCOON,ioos:station:TCOON:524:1,2014-12-01T17:54:00Z,29.8672,-93.9310,0.0,1.7,105.0,2.3,'11111222,11111222,11111222' 
TCOON,ioos:station:TCOON:524:1,2014-12-01T18:00:00Z,29.8672,-93.9310,0.0,1.6,97.0,2.0,'11111222,11111222,11111222' 
TCOON,ioos:station:TCOON:524:1,2014-12-01T18:06:00Z,29.8672,-93.9310,0.0,1.7,91.0,2.2,'11111222,11111222,11111222' 
TCOON,ioos:station:TCOON:524:1,2014-12-01T18:12:00Z,29.8672,-93.9310,0.0,1.9,98.0,2.5,'11111222,11111222,11111222' 
TCOON,ioos:station:TCOON:524:1,2014-12-01T18:18:00Z,29.8672,-93.9310,0.0,1.5,95.0,2.5,'11111222,11111222,11111222' 
TCOON,ioos:station:TCOON:524:1,2014-12-01T18:24:00Z,29.8672,-93.9310,0.0,1.4,108.0,2.0,'11111222,11111222,11111222' 
TCOON,ioos:station:TCOON:524:1,2014-12-01T18:30:00Z,29.8672,-93.9310,0.0,1.3,103.0,2.1,'11111222,11111222,11111222' 
TCOON,ioos:station:TCOON:524:1,2014-12-01T18:36:00Z,29.8672,-93.9310,0.0,1.1,112.0,1.4,'11111222,11111222,11111222' 
TCOON,ioos:station:TCOON:524:1,2014-12-01T18:42:00Z,29.8672,-93.9310,0.0,1.1,107.0,1.7,'11111222,11111222,11111222' 
TCOON,ioos:station:TCOON:524:1,2014-12-01T18:48:00Z,29.8672,-93.9310,0.0,0.8,124.0,1.2,'11111222,11111222,11111222' 
TCOON,ioos:station:TCOON:524:1,2014-12-01T18:54:00Z,29.8672,-93.9310,0.0,1.9,118.0,2.4,'11111222,11111222,11111222' 
TCOON,ioos:station:TCOON:524:1,2014-12-01T19:00:00Z,29.8672,-93.9310,0.0,1.9,118.0,2.4,'1111122,1111122,1111122' 
TCOON,ioos:station:TCOON:524:1,2014-12-01T19:06:00Z,29.8672,-93.9310,0.0,1.9,144.0,2.6,'11111222,11111222,11111222' 
TCOON,ioos:station:TCOON:524:1,2014-12-01T19:12:00Z,29.8672,-93.9310,0.0,1.5,136.0,2.4,'11111222,11111222,11111222' 
TCOON,ioos:station:TCOON:524:1,2014-12-01T19:18:00Z,29.8672,-93.9310,0.0,1.5,136.0,2.4,'1111122,1111122,1111122' 
TCOON,ioos:station:TCOON:524:1,2014-12-01T19:24:00Z,29.8672,-93.9310,0.0,1.0,130.0,1.5,'11111222,11111222,11111222' 
TCOON,ioos:station:TCOON:524:1,2014-12-01T19:30:00Z,29.8672,-93.9310,0.0,1.3,148.0,1.9,'11111222,11111222,11111222' 
TCOON,ioos:station:TCOON:524:1,2014-12-01T19:36:00Z,29.8672,-93.9310,0.0,1.7,210.0,2.3,'11111222,11111222,11111222' 
TCOON,ioos:station:TCOON:524:1,2014-12-01T19:42:00Z,29.8672,-93.9310,0.0,4.4,247.0,5.4,'11111222,11111222,11111222' 
TCOON,ioos:station:TCOON:524:1,2014-12-01T19:48:00Z,29.8672,-93.9310,0.0,2.8,269.0,5.0,'11111222,11111222,11111222' 
TCOON,ioos:station:TCOON:524:1,2014-12-01T19:54:00Z,29.8672,-93.9310,0.0,2.3,264.0,3.8,'11111222,11111222,11111222' 
TCOON,ioos:station:TCOON:524:1,2014-12-01T20:00:00Z,29.8672,-93.9310,0.0,3.2,291.0,4.6,'11111222,11111222,11111222' 
TCOON,ioos:station:TCOON:524:1,2014-12-01T20:06:00Z,29.8672,-93.9310,0.0,3.2,286.0,4.1,'11111222,11111222,11111222' 
TCOON,ioos:station:TCOON:524:1,2014-12-01T20:12:00Z,29.8672,-93.9310,0.0,2.5,84.0,7.7,'11111222,11111222,11111222' 
TCOON,ioos:station:TCOON:524:1,2014-12-01T20:18:00Z,29.8672,-93.9310,0.0,2.5,84.0,7.7,'1111122,1111122,1111122' 